{"data":{"norad_id":63674,"epoch":"2026-09-20T18:21:45.013248Z","epoch_age_seconds":129930,"freshness":"FRESH","line1":"1 63674U 25085L   26263.76510432  .00147598  00000+0  11302-2 0  9995","line2":"2 63674  42.9975 182.4293 0001772 205.3718 154.7063 15.70907595 80929","mean_motion":15.70907595,"eccentricity":0.0001772,"inclination_deg":42.9975,"raan_deg":182.4293,"arg_perigee_deg":205.3718,"mean_anomaly_deg":154.7063,"bstar":0.0011302,"rev_number":8092,"period_min":91.66675395697,"perigee_km":355.10852676801,"apogee_km":357.4952119033,"semimajor_km":6734.4388693357,"source":"CELESTRAK","updated_at":"2026-09-21T09:00:35.059097Z"}}